When you browse on this site, cookies collect data to enhance your experience and personalize the content and advertising you see.
Visit our Privacy Policy to learn more. By continuing to use the site, you agree to this use of cookies and data.
  • în România
  • Lista ţărilor
  • Pe 7 zile
  • Temperatura apei
  • Hartă satelitară
  • Meteo pe hartă
  • Widget-uri
  • user-avatar
    Intrare

    Meteo pe oră la Wewak

    Astăzi, 20 Iulie, Sâmbătă

    Timp Temperatura Precipitaţii Vânt Presiune Umiditate
    00:00 +27°C° 0 mm 3 m/s 755 mmHg 97%
    01:00 +27°C° 0 mm 3 m/s 755 mmHg 97%
    02:00 +27°C° 0.1 mm 3 m/s 755 mmHg 97%
    03:00 +27°C° 0.1 mm 3 m/s 754 mmHg 97%
    04:00 +27°C° 0 mm 3 m/s 754 mmHg 97%
    05:00 +27°C° 0.4 mm 3 m/s 754 mmHg 97%
    06:00 +26°C° 0.4 mm 3 m/s 755 mmHg 97%
    07:00 +26°C° 0.4 mm 3 m/s 755 mmHg 98%
    08:00 +28°C° 0.2 mm 3 m/s 755 mmHg 92%
    09:00 +29°C° 0.2 mm 2 m/s 755 mmHg 86%
    10:00 +31°C° 0.2 mm 2 m/s 755 mmHg 81%
    11:00 +31°C° 0.5 mm 2 m/s 755 mmHg 80%
    12:00 +32°C° 0.5 mm 2 m/s 754 mmHg 79%
    13:00 +32°C° 0.5 mm 2 m/s 753 mmHg 78%
    14:00 +32°C° 0.2 mm 2 m/s 753 mmHg 79%
    15:00 +33°C° 0.2 mm 3 m/s 753 mmHg 80%
    16:00 +31°C° 0.2 mm 3 m/s 752 mmHg 81%
    17:00 +30°C° 0.1 mm 3 m/s 753 mmHg 85%
    18:00 +29°C° 0.1 mm 3 m/s 753 mmHg 88%
    19:00 +28°C° 0.1 mm 3 m/s 753 mmHg 91%
    20:00 +28°C° 0 mm 3 m/s 754 mmHg 93%
    21:00 +28°C° 0 mm 3 m/s 754 mmHg 94%
    22:00 +28°C° 0 mm 3 m/s 755 mmHg 95%
    23:00 +27°C° 0.5 mm 3 m/s 755 mmHg 95%

    Mâine, 21 Iulie, Duminică

    Timp Temperatura Precipitaţii Vânt Presiune Umiditate
    00:00 +27°C° 0.5 mm 3 m/s 755 mmHg 96%
    01:00 +27°C° 0.5 mm 3 m/s 755 mmHg 97%
    02:00 +27°C° 0.5 mm 3 m/s 754 mmHg 97%
    03:00 +26°C° 0.5 mm 3 m/s 754 mmHg 97%
    04:00 +26°C° 0.5 mm 3 m/s 754 mmHg 97%
    05:00 +26°C° 0.3 mm 3 m/s 754 mmHg 97%
    06:00 +26°C° 0.3 mm 3 m/s 754 mmHg 97%
    07:00 +26°C° 0.3 mm 3 m/s 755 mmHg 98%
    08:00 +27°C° 0.3 mm 3 m/s 755 mmHg 94%
    09:00 +28°C° 0.3 mm 3 m/s 755 mmHg 90%
    10:00 +29°C° 0.3 mm 3 m/s 755 mmHg 86%
    11:00 +30°C° 1.1 mm 3 m/s 755 mmHg 82%
    12:00 +31°C° 1.1 mm 3 m/s 754 mmHg 78%
    13:00 +32°C° 1.1 mm 2 m/s 754 mmHg 75%
    14:00 +33°C° 0.5 mm 3 m/s 753 mmHg 76%
    15:00 +31°C° 0.5 mm 3 m/s 753 mmHg 78%
    16:00 +31°C° 0.5 mm 3 m/s 752 mmHg 79%
    17:00 +30°C° 0 mm 3 m/s 753 mmHg 82%
    18:00 +29°C° 0 mm 3 m/s 753 mmHg 86%
    19:00 +28°C° 0 mm 3 m/s 753 mmHg 89%
    20:00 +27°C° 1.1 mm 3 m/s 754 mmHg 91%
    21:00 +27°C° 1.1 mm 3 m/s 754 mmHg 92%
    22:00 +27°C° 1.1 mm 3 m/s 755 mmHg 94%
    23:00 +27°C° 1.3 mm 3 m/s 754 mmHg 94%

    Poimâine, 22 Iulie, Luni

    Timp Temperatura Precipitaţii Vânt Presiune Umiditate
    00:00 +26°C° 1.3 mm 3 m/s 754 mmHg 94%
    01:00 +26°C° 1.3 mm 3 m/s 754 mmHg 94%
    02:00 +26°C° 0.8 mm 3 m/s 753 mmHg 94%
    03:00 +26°C° 0.8 mm 3 m/s 753 mmHg 95%
    04:00 +26°C° 0.8 mm 3 m/s 753 mmHg 95%
    05:00 +26°C° 0.9 mm 3 m/s 753 mmHg 95%
    06:00 +26°C° 0.9 mm 3 m/s 754 mmHg 96%
    07:00 +26°C° 0.9 mm 3 m/s 754 mmHg 96%
    08:00 +27°C° 0.2 mm 3 m/s 754 mmHg 93%
    09:00 +28°C° 0.2 mm 3 m/s 754 mmHg 91%
    10:00 +28°C° 0.2 mm 3 m/s 755 mmHg 88%
    11:00 +30°C° 0.1 mm 3 m/s 754 mmHg 82%
    12:00 +31°C° 0.1 mm 3 m/s 753 mmHg 76%
    13:00 +33°C° 0.1 mm 3 m/s 753 mmHg 69%
    14:00 +33°C° 0 mm 3 m/s 752 mmHg 68%
    15:00 +33°C° 0 mm 4 m/s 752 mmHg 66%
    16:00 +33°C° 0 mm 4 m/s 752 mmHg 65%
    17:00 +32°C° 0.3 mm 4 m/s 752 mmHg 72%
    18:00 +29°C° 0.3 mm 4 m/s 752 mmHg 80%
    19:00 +28°C° 0.3 mm 4 m/s 753 mmHg 87%
    20:00 +27°C° 1.1 mm 4 m/s 753 mmHg 89%
    21:00 +27°C° 1.1 mm 4 m/s 754 mmHg 91%
    22:00 +27°C° 1.1 mm 4 m/s 754 mmHg 93%
    23:00 +27°C° 1.2 mm 4 m/s 754 mmHg 93%

    23 Iulie, Marţi

    Timp Temperatura Precipitaţii Vânt Presiune Umiditate
    00:00 +26°C° 1.2 mm 4 m/s 754 mmHg 93%
    01:00 +26°C° 1.2 mm 4 m/s 754 mmHg 93%
    02:00 +26°C° 0.5 mm 3 m/s 753 mmHg 94%
    03:00 +25°C° 0.5 mm 3 m/s 753 mmHg 95%
    04:00 +25°C° 0.5 mm 2 m/s 753 mmHg 96%
    05:00 +25°C° 0.1 mm 2 m/s 753 mmHg 96%
    06:00 +25°C° 0.1 mm 2 m/s 753 mmHg 97%
    07:00 +25°C° 0.1 mm 2 m/s 754 mmHg 97%
    08:00 +27°C° 0.2 mm 3 m/s 754 mmHg 87%
    09:00 +29°C° 0.2 mm 3 m/s 754 mmHg 78%
    10:00 +31°C° 0.2 mm 3 m/s 755 mmHg 68%
    11:00 +33°C° 0.1 mm 3 m/s 754 mmHg 64%
    12:00 +34°C° 0.1 mm 4 m/s 753 mmHg 60%
    13:00 +35°C° 0.1 mm 4 m/s 753 mmHg 56%
    14:00 +34°C° 0.1 mm 4 m/s 753 mmHg 59%
    15:00 +34°C° 0.1 mm 5 m/s 752 mmHg 62%
    16:00 +33°C° 0.1 mm 5 m/s 752 mmHg 65%
    17:00 +32°C° 0.1 mm 4 m/s 752 mmHg 72%
    18:00 +29°C° 0.1 mm 4 m/s 753 mmHg 80%
    19:00 +28°C° 0.1 mm 4 m/s 753 mmHg 88%
    20:00 +27°C° 1.4 mm 4 m/s 754 mmHg 90%
    21:00 +27°C° 1.4 mm 3 m/s 755 mmHg 92%
    22:00 +27°C° 1.4 mm 3 m/s 755 mmHg 94%
    23:00 +26°C° 1 mm 3 m/s 755 mmHg 95%

    24 Iulie, Miercuri

    Timp Temperatura Precipitaţii Vânt Presiune Umiditate
    00:00 +26°C° 1 mm 3 m/s 755 mmHg 95%
    01:00 +26°C° 1 mm 3 m/s 755 mmHg 96%
    02:00 +26°C° 0.7 mm 3 m/s 754 mmHg 96%
    03:00 +25°C° 0.7 mm 3 m/s 754 mmHg 97%
    04:00 +25°C° 0.7 mm 3 m/s 754 mmHg 97%
    05:00 +25°C° 0.5 mm 3 m/s 754 mmHg 97%
    06:00 +25°C° 0.5 mm 3 m/s 755 mmHg 97%
    07:00 +25°C° 0.5 mm 2 m/s 755 mmHg 97%
    08:00 +27°C° 0.2 mm 3 m/s 755 mmHg 88%
    09:00 +29°C° 0.2 mm 3 m/s 756 mmHg 79%
    10:00 +31°C° 0.2 mm 3 m/s 756 mmHg 70%
    11:00 +33°C° 0 mm 4 m/s 755 mmHg 68%
    12:00 +33°C° 0 mm 4 m/s 755 mmHg 66%
    13:00 +34°C° 0 mm 4 m/s 754 mmHg 65%
    14:00 +33°C° 0.2 mm 5 m/s 753 mmHg 68%
    15:00 +33°C° 0.2 mm 5 m/s 753 mmHg 72%
    16:00 +32°C° 0.2 mm 6 m/s 752 mmHg 76%
    17:00 +30°C° 0 mm 5 m/s 753 mmHg 79%
    18:00 +29°C° 0 mm 5 m/s 754 mmHg 83%
    19:00 +28°C° 0 mm 5 m/s 754 mmHg 87%
    20:00 +28°C° 0 mm 5 m/s 755 mmHg 88%
    21:00 +28°C° 0 mm 5 m/s 755 mmHg 88%
    22:00 +28°C° 0 mm 5 m/s 756 mmHg 89%
    23:00 +27°C° 1.2 mm 5 m/s 755 mmHg 91%

    25 Iulie, Joi

    Timp Temperatura Precipitaţii Vânt Presiune Umiditate
    00:00 +27°C° 1.2 mm 5 m/s 755 mmHg 94%
    01:00 +26°C° 1.2 mm 5 m/s 755 mmHg 96%
    02:00 +26°C° 1.5 mm 5 m/s 755 mmHg 96%
    03:00 +26°C° 1.5 mm 5 m/s 755 mmHg 97%
    04:00 +25°C° 1.5 mm 5 m/s 754 mmHg 97%
    05:00 +25°C° 0.7 mm 5 m/s 755 mmHg 97%
    06:00 +25°C° 0.7 mm 4 m/s 755 mmHg 98%
    07:00 +25°C° 0.7 mm 3 m/s 755 mmHg 98%
    08:00 +27°C° 0.1 mm 3 m/s 756 mmHg 93%
    09:00 +28°C° 0.1 mm 3 m/s 756 mmHg 88%
    10:00 +29°C° 0.1 mm 2 m/s 756 mmHg 83%
    11:00 +31°C° 0.4 mm 2 m/s 756 mmHg 78%
    12:00 +32°C° 0.4 mm 2 m/s 755 mmHg 74%
    13:00 +34°C° 0.4 mm 2 m/s 754 mmHg 69%
    14:00 +32°C° 1.1 mm 2 m/s 754 mmHg 76%
    15:00 +31°C° 1.1 mm 2 m/s 754 mmHg 82%
    16:00 +30°C° 1.1 mm 3 m/s 753 mmHg 89%
    17:00 +29°C° 0.7 mm 2 m/s 754 mmHg 91%
    18:00 +28°C° 0.7 mm 2 m/s 754 mmHg 93%
    19:00 +27°C° 0.7 mm 1 m/s 755 mmHg 96%
    20:00 +27°C° 1 mm 1 m/s 755 mmHg 95%
    21:00 +27°C° 1 mm 1 m/s 756 mmHg 94%
    22:00 +27°C° 1 mm 1 m/s 756 mmHg 94%
    23:00 +26°C° 0.8 mm 1 m/s 756 mmHg 93%
    Arată mai mult